Regional Weather Roundup
Issued by NWS

Home | Current Version | Previous Version | Text Only | Print | Product List | Glossary On
Versions: 1 2 3 4 5 6 7 8 9 10 11 12 13 14 15 16 17 18 19 20 21 22 23 24 25 26 27 28 29 30 31 32 33 34 35 36 37 38 39 40 41 42 43 44 45 46 47 48 49 50
000
ASUS44 KJAN 261510
RWRMS

MISSISSIPPI HOURLY WEATHER ROUNDUP
NATIONAL WEATHER SERVICE JACKSON MS
900 AM CST SUN FEB 26 2017

NOTE: "FAIR: INDICATES FEW OR NO CLOUDS BELOW 12,000 FEET WITH NO
SIGNIFICANT WEATHER AND/OR OBSTRUCTIONS TO VISIBILITY.

MSZ001>002-007>008-010>013-018>021-025>028-034>036-261600-
NORTHWEST MISSISSIPPI

CITY           SKY/WX    TMP DP  RH WIND       PRES   REMARKS
BATESVILLE     FAIR      43  23  45 SE7       30.21R
CLEVELAND      FAIR      44  24  44 SE13G22   30.19R
GREENWOOD      SUNNY     45  20  36 E14G20    30.18R
GREENVILLE     SUNNY     45  25  45 SE15      30.17R
OXFORD         FAIR      39  19  45 SE12      30.22R WCI  32
TUNICA         SUNNY     43  27  52 SE9       30.21R
WINONA         FAIR      42  25  49 E3        30.20R
$$

MSZ003>006-009-014>017-022>024-029>033-037>039-261600-
NORTHEAST MISSISSIPPI

CITY           SKY/WX    TMP DP  RH WIND       PRES   REMARKS
COLUMBUS AFB   SUNNY     44  26  49 E12       30.22S
CORINTH        FAIR      43  25  49 SE10      30.23S
GOLDN TRIANGLE SUNNY     43  21  42 E14       30.18S
STARKVILLE     FAIR      43  23  45 E10G17    30.24R
TUPELO         SUNNY     44  20  38 E12       30.22S
$$

MSZ040-058-261600-
CENTRAL MISSISSIPPI

CITY           SKY/WX    TMP DP  RH WIND       PRES   REMARKS
JACKSON INTL   SUNNY     46  25  43 E12       30.20R
JACKSON HAWKNS SUNNY     46  24  42 E9        30.20R
MADISON          N/A    N/A N/A N/A SE6       30.19S
MERIDIAN KEY   SUNNY     48  26  42 E10       30.23R
MERIDIAN NAS   SUNNY     45  26  47 E5        30.24R
VICKSBURG VKS  SUNNY     46  23  39 E9        30.16R
$$

MSZ059>079-261600-
SOUTH MISSISSIPPI

CITY           SKY/WX    TMP DP  RH WIND       PRES   REMARKS
BROOKHAVEN     FAIR     N/A N/A N/A E8        30.20R
HATTIESBURG    MOSUNNY   47  27  45 E9        30.23R
LAUREL         FAIR      46  26  45 E10G16    30.23S
MCCOMB         SUNNY     47  25  42 E9        30.19S
NATCHEZ        SUNNY     46  25  42 E15G21    30.16S
PINE BELT      SUNNY     46  25  42 E8        30.23S
$$

MSZ080>082-261600-
COASTAL MISSISSIPPI

CITY           SKY/WX    TMP DP  RH WIND       PRES   REMARKS
BAY ST LOUIS   SUNNY     50  21  32 MISG      30.22R
BILOXI         SUNNY     52  30  43 E13       30.21R
PASCAGOULA     SUNNY     52  29  41 NE8       30.22R
GULFPORT       SUNNY     51  30  44 E10G25    30.21R
$$

LAZ007>009-015>016-023>026-261600-
NORTHEAST LOUISIANA

CITY           SKY/WX    TMP DP  RH WIND       PRES   REMARKS
BASTROP        FAIR      47  27  45 E8        30.17R
TALLULAH/VBURG SUNNY     46  26  45 SE13      30.19R
VIDALIA        FAIR      48  28  46 E9        30.16S
$$



USA.gov is the U.S. government's official web portal to all federal, state and local government web resources and services.